[[{"header":{"parameterUnit":"m.s-1","parameterCategory":2,"la1":30.2991,"la2":30.254,"lo1":-89.0895,"lo2":-89.0444,"dy":0.0017,"dx":0.0017,"nx":28,"ny":28,"refTime":"2024-05-27T09:00:00:Z","depth":"0","parameterNumber":2,"parameterNumberName":"U-component_of_CURRENTS"},"data":[0,0,0,0,0,0,0,0,0,0,0,0,0,0,0,0,0,0,0,0,0,0,0,0,0,0,0,0,0,0,0,0,0,0,0,0,0,0,0,0,0,0,0,0,0,0,0,0,0,0,0,0,0,0,0,0,0,0,-0.3421,-0.3423,0,-0.3553,-0.3554,-0.3555,-0.3576,-0.3575,-0.3574,-0.3573,-0.3664,-0.3668,-0.3671,0,0,0,0,0,0,0,0,0,0,0,0,0,-0.3219,-0.3222,-0.3421,-0.3423,-0.3425,-0.3552,-0.3554,-0.3555,-0.3576,-0.3575,-0.3574,-0.3573,-0.3663,-0.3667,-0.3671,0,0,0,0,0,0,0,0,0,0,0,0,0,-0.332,-0.3223,-0.3421,-0.3454,-0.3458,-0.3552,-0.3554,-0.3556,-0.3576,-0.3575,-0.3574,-0.3573,-0.3662,-0.3667,-0.3671,-0.3724,0,0,-0.3686,-0.3688,0,0,0,0,0,0,0,0,-0.3314,-0.3327,-0.3447,-0.3452,-0.3457,-0.355,-0.3516,-0.3612,-0.3576,-0.3527,-0.3573,-0.3572,-0.3626,-0.3634,-0.3656,-0.3729,-0.3733,-0.3686,-0.3689,-0.3691,-0.3693,0,0,0,0,0,0,0,-0.3307,-0.3322,-0.3469,-0.3449,-0.3455,-0.3473,-0.3485,-0.3534,-0.3578,-0.3531,-0.3534,-0.3556,-0.3628,-0.3651,-0.3658,-0.3734,-0.3686,-0.369,-0.3693,-0.3695,-0.3802,-0.3802,0,0,0,0,0,0,-0.33,-0.3315,-0.3465,-0.3473,-0.3386,-0.3478,-0.3491,-0.3518,-0.3578,-0.3588,-0.3556,-0.3556,-0.3644,-0.3653,-0.3661,-0.369,-0.3691,-0.3696,-0.3698,-0.3802,-0.3802,-0.3802,0,0,0,0,0,0,-0.3295,-0.3312,-0.346,-0.34,-0.342,-0.3483,-0.3512,-0.3521,-0.3553,-0.3599,-0.3606,-0.358,-0.3643,-0.3655,-0.3697,-0.3694,-0.3698,-0.3702,-0.3802,-0.3802,-0.3802,-0.377,0,0,0,0,0,0,-0.3288,-0.3309,-0.3339,-0.34,-0.3424,-0.3528,-0.3514,-0.3525,-0.357,-0.357,-0.3622,-0.3628,-0.3643,-0.369,-0.3702,-0.3701,-0.3706,-0.3802,-0.3802,-0.3802,-0.3771,-0.3769,-0.3767,0,0,0,0,0,-0.3281,-0.3351,-0.334,-0.3359,-0.3458,-0.353,-0.3544,-0.358,-0.3572,-0.36,-0.3614,-0.3627,-0.3697,-0.3695,-0.3708,-0.3709,-0.3802,-0.3802,-0.3802,-0.3772,-0.377,-0.3767,0,0,0,0,0,0,-0.3313,-0.3362,-0.335,-0.3439,-0.3474,-0.3535,-0.358,-0.359,-0.3626,-0.362,-0.3643,-0.3652,-0.3685,-0.3707,-0.3703,-0.3737,-0.3746,-0.3749,-0.3719,-0.3717,-0.3715,-0.3664,-0.371,0,0,0,0,0,-0.3322,-0.3362,-0.3408,-0.3473,-0.3492,-0.3527,-0.3564,-0.3578,-0.3616,-0.3631,-0.366,-0.368,-0.3698,-0.3714,-0.3745,-0.3779,-0.3741,-0.3782,-0.378,-0.3778,-0.3745,-0.3678,-0.3666,-0.3802,-0.3802,-0.3802,0,0,-0.3353,-0.3384,-0.341,-0.3477,-0.3505,-0.3543,-0.3546,-0.3604,-0.3618,-0.3637,-0.3672,-0.3688,-0.3708,-0.3731,-0.3747,-0.3747,-0.3724,-0.3778,-0.3776,-0.3743,-0.3677,-0.3663,-0.3651,-0.3801,-0.3801,-0.3801,0,0,-0.3411,-0.3455,-0.3484,-0.3519,-0.356,-0.3579,-0.3593,-0.3642,-0.3645,-0.3685,-0.3678,-0.3671,-0.3748,-0.372,-0.3723,-0.373,-0.3721,-0.3764,-0.371,-0.3647,-0.3634,-0.3622,-0.3568,-0.3551,-0.3757,-0.3757,-0.3757,0,-0.3443,-0.3471,-0.3511,-0.3546,-0.3562,-0.359,-0.3608,-0.3639,-0.369,-0.3664,-0.3694,-0.3699,-0.3723,-0.3684,-0.3683,-0.3719,-0.3694,-0.3719,-0.364,-0.3627,-0.3616,-0.3563,-0.3545,-0.3756,-0.3756,-0.3756,-0.3756,0,-0.3489,-0.3523,-0.3554,-0.3576,-0.3615,-0.3643,-0.367,-0.3686,-0.3687,-0.3685,-0.3658,-0.3672,-0.3652,-0.367,-0.3686,-0.3614,-0.3627,-0.3648,-0.3638,-0.3599,-0.3547,-0.3529,-0.3753,-0.3754,-0.3754,-0.3755,0,0,-0.3486,-0.3562,-0.3559,-0.3544,-0.3612,-0.3628,-0.366,-0.3645,-0.3616,-0.3648,-0.3593,-0.3599,-0.3574,-0.3572,-0.3576,-0.3523,-0.3431,-0.3554,-0.3551,-0.3484,-0.3298,-0.3217,-0.3189,-0.3448,-0.3445,-0.3442,-0.3298,0,-0.3472,-0.3501,-0.3556,-0.3565,-0.356,-0.3602,-0.3618,-0.3618,-0.3616,-0.3591,-0.355,-0.3528,-0.355,-0.353,-0.3477,-0.3458,-0.338,-0.3467,-0.3357,-0.3353,-0.3272,-0.3163,-0.3059,-0.2914,-0.328,-0.3277,-0.3275,0,-0.3433,-0.3452,-0.3456,-0.3474,-0.3477,-0.3506,-0.3467,-0.3492,-0.348,-0.3477,-0.3436,-0.3439,-0.3366,-0.3399,-0.3282,-0.3347,-0.3299,-0.3275,-0.3269,-0.318,-0.3235,-0.3011,-0.2867,-0.2853,-0.3247,-0.3249,-0.3251,0,-0.3285,-0.3349,-0.3324,-0.3344,-0.3408,-0.3395,-0.3416,-0.3424,-0.3413,-0.3391,-0.3378,-0.3317,-0.3283,-0.3217,-0.3182,-0.323,-0.3056,-0.3115,-0.2977,-0.2974,-0.2848,-0.2838,-0.2653,-0.2976,-0.2976,-0.2976,-0.2977,0,-0.3189,-0.3163,-0.3252,-0.3239,-0.3202,-0.3282,-0.3241,-0.3262,-0.3282,-0.3245,-0.3292,-0.3239,-0.3236,-0.3166,-0.3131,-0.2983,-0.3001,-0.2913,-0.2903,-0.2839,-0.2829,-0.2786,-0.2843,-0.2971,-0.2972,-0.2973,-0.2974,0,-0.301,-0.3078,-0.3054,-0.3117,-0.3132,-0.3097,-0.3161,-0.313,-0.318,-0.3138,-0.3131,-0.3155,-0.3069,-0.3046,-0.2941,-0.2894,-0.2728,-0.272,-0.2649,-0.2632,-0.2495,-0.2556,-0.2357,-0.2291,-0.253,-0.2527,-0.2524,0,-0.2908,-0.2882,-0.2941,-0.2934,-0.2962,-0.2957,-0.2955,-0.3044,-0.3033,-0.3062,-0.3017,-0.2975,-0.2905,-0.2746,-0.2651,-0.2526,-0.2568,-0.2362,-0.2405,-0.2408,-0.2471,-0.2533,-0.2498,-0.2243,-0.2238,-0.2234,-0.2231,0,-0.2717,-0.2752,-0.2752,-0.2743,-0.2745,-0.2751,-0.2766,-0.2762,-0.2846,-0.2836,-0.2795,-0.2756,-0.2639,-0.2479,-0.2351,-0.2269,-0.2317,-0.2274,-0.2278,-0.2196,-0.2245,-0.2206,-0.2449,-0.2195,-0.2199,-0.2201,-0.2203,-0.2205,-0.2565,-0.2527,-0.2546,-0.2524,-0.2539,-0.2523,-0.2469,-0.2519,-0.25,-0.2464,-0.2529,-0.2435,-0.2363,-0.2168,-0.208,-0.1925,-0.2025,-0.1887,-0.1952,-0.2007,-0.1947,-0.2106,-0.1851,-0.1853,-0.1854,-0.1855,-0.1856,0,-0.2356,-0.2345,-0.232,-0.2302,-0.225,-0.2323,-0.2315,-0.2249,-0.2184,-0.2201,-0.2155,-0.2078,-0.1936,-0.1891,-0.1752,-0.1651,-0.1633,-0.1624,-0.1694,-0.1666,-0.1777,-0.1768,-0.148,-0.148,-0.148,-0.148,-0.148,-0.148,-0.2239,-0.2154,-0.2157,-0.2023,-0.2006,-0.1888,-0.1851,-0.1808,-0.1794,-0.1692,-0.167,-0.1664,-0.1688,-0.18,-0.1666,-0.1572,-0.1559,-0.1498,-0.1542,-0.1661,-0.1692,-0.1722,-0.1723,-0.143,-0.143,-0.136,-0.136,-0.136]},{"header":{"parameterUnit":"m.s-1","parameterCategory":2,"la1":30.2991,"la2":30.254,"lo1":-89.0895,"lo2":-89.0444,"dy":0.0017,"dx":0.0017,"nx":28,"ny":28,"refTime":"2024-05-27T09:00:00:Z","depth":"0","parameterNumber":3,"parameterNumberName":"V-component_of_CURRENTS"},"data":[0,0,0,0,0,0,0,0,0,0,0,0,0,0,0,0,0,0,0,0,0,0,0,0,0,0,0,0,0,0,0,0,0,0,0,0,0,0,0,0,0,0,0,0,0,0,0,0,0,0,0,0,0,0,0,0,0,0,-0.0455,-0.0454,0,-0.0283,-0.0281,-0.0278,-0.0152,-0.0151,-0.015,-0.0149,0.0134,0.014,0.0147,0,0,0,0,0,0,0,0,0,0,0,0,0,-0.0555,-0.0555,-0.0456,-0.0454,-0.0452,-0.0283,-0.028,-0.0278,-0.0152,-0.0151,-0.015,-0.0149,0.0131,0.0139,0.0148,0,0,0,0,0,0,0,0,0,0,0,0,0,-0.0457,-0.0554,-0.0456,-0.0371,-0.0362,-0.0284,-0.028,-0.0277,-0.0152,-0.0151,-0.015,-0.0149,0.0129,0.0139,0.0149,0.0189,0,0,0.018,0.0184,0,0,0,0,0,0,0,0,-0.0463,-0.0453,-0.0386,-0.0377,-0.0367,-0.0241,-0.0212,-0.0117,-0.0152,-0.0228,-0.0149,-0.0148,0.0015,0.0035,0.0069,0.0202,0.0215,0.0181,0.0187,0.0192,0.0194,0,0,0,0,0,0,0,-0.047,-0.0459,-0.0383,-0.0384,-0.0373,-0.0301,-0.0286,-0.0193,-0.011,-0.0221,-0.0213,-0.02,0.0022,0.0058,0.0076,0.0219,0.0181,0.019,0.0196,0.02,0.0386,0.0385,0,0,0,0,0,0,-0.0506,-0.0467,-0.0389,-0.0379,-0.0417,-0.0301,-0.0284,-0.0279,-0.0113,-0.0089,-0.0201,-0.0194,0.004,0.0064,0.0087,0.0123,0.0191,0.0201,0.0207,0.0387,0.0385,0.0384,0,0,0,0,0,0,-0.0509,-0.0502,-0.0396,-0.0421,-0.0403,-0.0302,-0.0296,-0.0277,-0.0239,-0.0099,-0.0072,-0.0184,0.0042,0.0073,0.0152,0.0136,0.0206,0.0215,0.0388,0.0386,0.0385,0.0209,0,0,0,0,0,0,-0.0513,-0.0504,-0.0513,-0.0424,-0.0403,-0.0362,-0.0297,-0.0274,-0.0235,-0.0224,-0.0075,-0.0048,0.0045,0.0136,0.0162,0.0151,0.0223,0.039,0.0388,0.0385,0.0217,0.0202,0.0189,0,0,0,0,0,-0.0517,-0.0533,-0.0514,-0.0505,-0.0419,-0.0363,-0.0345,-0.0266,-0.0236,-0.0226,-0.0136,-0.0053,0.014,0.0143,0.0175,0.0166,0.0391,0.0388,0.0386,0.0223,0.0205,0.0189,0,0,0,0,0,0,-0.0579,-0.0519,-0.0497,-0.0494,-0.0442,-0.0343,-0.0328,-0.0279,-0.0201,-0.019,-0.0061,-0.0027,0.0034,0.0121,0.012,0.021,0.0277,0.028,0.0143,0.0127,0.0113,0.0114,0.0232,0,0,0,0,0,-0.0603,-0.0599,-0.053,-0.053,-0.051,-0.0425,-0.0393,-0.0343,-0.0264,-0.0228,-0.0131,-0.0032,0.0046,0.0101,0.0186,0.0243,0.0328,0.0255,0.0241,0.0229,0.0249,0.0333,0.0329,0.0375,0.0375,0.0375,0,0,-0.0626,-0.0595,-0.0591,-0.0543,-0.0495,-0.0475,-0.0401,-0.0365,-0.0343,-0.0209,-0.0154,-0.0075,0.0048,0.0102,0.0138,0.0176,0.0255,0.0225,0.0214,0.0242,0.033,0.0326,0.0322,0.0373,0.0374,0.0374,0,0,-0.0674,-0.0647,-0.066,-0.0625,-0.0572,-0.0518,-0.0518,-0.0433,-0.039,-0.0335,-0.0244,-0.0181,-0.0049,0.0026,0.0083,0.0048,0.0172,0.0071,0.0015,0.0094,0.0091,0.009,0.0165,0.0172,0.007,0.007,0.007,0,-0.0708,-0.0711,-0.0655,-0.0657,-0.0632,-0.0549,-0.0551,-0.05,-0.0401,-0.0363,-0.0339,-0.0169,-0.0083,-0.0004,-0.0025,0.0018,0.0087,0.0063,0.0076,0.0076,0.0078,0.0156,0.0166,0.0061,0.0062,0.0063,0.0064,0,-0.0757,-0.076,-0.0764,-0.0741,-0.0709,-0.0697,-0.0626,-0.0591,-0.0538,-0.0472,-0.0393,-0.0288,-0.0178,-0.0163,-0.01,-0.005,0.0,0.0038,0.0113,0.0063,0.0148,0.0162,0.0049,0.0052,0.0054,0.0057,0,0,-0.0823,-0.0806,-0.0805,-0.0804,-0.0751,-0.0724,-0.0703,-0.0639,-0.0605,-0.053,-0.0473,-0.0379,-0.0313,-0.0245,-0.0168,-0.0107,-0.0065,-0.0039,-0.0031,0.0028,0.0114,0.0176,0.0198,-0.0026,-0.0024,-0.0022,0.0158,0,-0.0875,-0.0908,-0.0873,-0.0884,-0.0888,-0.0811,-0.0789,-0.0721,-0.0648,-0.0575,-0.0474,-0.0394,-0.0346,-0.0301,-0.0237,-0.0091,-0.0032,-0.0117,0.0164,0.0173,0.0228,0.0215,0.0265,0.0433,0.0172,0.0174,0.0176,0,-0.0925,-0.0938,-0.0972,-0.0945,-0.0936,-0.0929,-0.0857,-0.0824,-0.0709,-0.0649,-0.0557,-0.0459,-0.0353,-0.0317,-0.0102,-0.0155,-0.0036,0.0064,0.0074,0.0215,0.0262,0.045,0.0469,0.0638,0.0199,0.0197,0.0195,0,-0.0985,-0.0994,-0.1024,-0.1017,-0.0982,-0.0973,-0.0943,-0.0848,-0.0807,-0.0691,-0.0635,-0.0493,-0.04,-0.0248,-0.0049,-0.0067,0.0196,0.0201,0.037,0.0376,0.0521,0.0536,0.0739,0.0348,0.0347,0.0347,0.0346,0,-0.1044,-0.106,-0.1058,-0.1071,-0.1087,-0.1034,-0.1015,-0.096,-0.0868,-0.0801,-0.0679,-0.0585,-0.0377,-0.02,-0.0044,0.0219,0.0208,0.0379,0.0435,0.0457,0.0464,0.0702,0.0758,0.0353,0.0352,0.0351,0.0349,0,-0.1098,-0.1102,-0.1133,-0.1123,-0.1121,-0.113,-0.1083,-0.1057,-0.0962,-0.087,-0.0836,-0.0632,-0.0389,-0.0172,0.0109,0.0247,0.0594,0.056,0.0569,0.0622,0.0918,0.0961,0.1246,0.1369,0.0777,0.078,0.0782,0,-0.1128,-0.1155,-0.1181,-0.1202,-0.1204,-0.1204,-0.1197,-0.1121,-0.1073,-0.0884,-0.0834,-0.0592,-0.0378,0.0051,0.0331,0.0638,0.0746,0.0847,0.0815,0.0963,0.1052,0.1069,0.1151,0.093,0.0934,0.0936,0.0939,0,-0.1178,-0.1191,-0.1219,-0.127,-0.1289,-0.1294,-0.1267,-0.124,-0.1113,-0.1002,-0.0788,-0.0606,-0.0173,0.0224,0.0605,0.0771,0.0983,0.0912,0.108,0.1209,0.1232,0.1366,0.0773,0.0963,0.096,0.0959,0.0957,0.0956,-0.1205,-0.1244,-0.1282,-0.1324,-0.1353,-0.1354,-0.1323,-0.1245,-0.1144,-0.0886,-0.0757,-0.039,0.0123,0.0687,0.089,0.1295,0.1224,0.1396,0.1442,0.145,0.1555,0.1008,0.1244,0.1243,0.1243,0.1242,0.1242,0,-0.1226,-0.1268,-0.1322,-0.1368,-0.1397,-0.1396,-0.1338,-0.1236,-0.1072,-0.0786,-0.0535,0.0079,0.0589,0.1052,0.1588,0.1807,0.1851,0.1895,0.1937,0.2002,0.155,0.1543,0.1837,0.1837,0.1837,0.1837,0.1837,0.1836,-0.1236,-0.1294,-0.1326,-0.1383,-0.1408,-0.1376,-0.1324,-0.1124,-0.0883,-0.0361,0.005,0.0348,0.0917,0.1713,0.2212,0.2255,0.2452,0.2416,0.253,0.2207,0.2163,0.2121,0.213,0.2542,0.2543,0.2977,0.2982,0.2985]}],[{"header":{"parameterUnit":"m.s-1","parameterCategory":2,"la1":30.2991,"la2":30.254,"lo1":-89.0895,"lo2":-89.0444,"dy":0.0017,"dx":0.0017,"nx":28,"ny":28,"refTime":"2024-05-27T09:00:00:Z","depth":"2","parameterNumber":2,"parameterNumberName":"U-component_of_CURRENTS"},"data":[0,0,0,0,0,0,0,0,0,0,0,0,0,0,0,0,0,0,0,0,0,0,0,0,0,0,0,0,0,0,0,0,0,0,0,0,0,0,0,0,0,0,0,0,0,0,0,0,0,0,0,0,0,0,0,0,0,0,-0.2756,-0.2756,0,-0.2768,-0.2767,-0.2767,-0.2744,-0.2744,-0.2744,-0.2743,-0.2729,-0.2729,-0.2728,0,0,0,0,0,0,0,0,0,0,0,0,0,-0.2667,-0.2669,-0.2756,-0.2757,-0.2757,-0.2768,-0.2767,-0.2767,-0.2744,-0.2744,-0.2744,-0.2743,-0.2729,-0.2729,-0.2728,0,0,0,0,0,0,0,0,0,0,0,0,0,-0.2691,-0.2669,-0.2756,-0.275,-0.275,-0.2768,-0.2767,-0.2767,-0.2745,-0.2744,-0.2743,-0.2743,-0.2729,-0.2729,-0.2728,-0.2739,0,0,-0.2728,-0.2728,0,0,0,0,0,0,0,0,-0.269,-0.2694,-0.275,-0.275,-0.275,-0.2758,-0.2731,-0.2758,-0.2745,-0.2742,-0.2743,-0.2743,-0.2739,-0.2738,-0.2736,-0.2739,-0.2738,-0.2728,-0.2728,-0.2728,-0.2728,0,0,0,0,0,0,0,-0.2688,-0.2693,-0.2756,-0.2751,-0.2751,-0.2731,-0.2734,-0.2735,-0.274,-0.2742,-0.2742,-0.275,-0.2738,-0.2736,-0.2735,-0.2738,-0.2728,-0.2728,-0.2728,-0.2728,-0.2769,-0.277,0,0,0,0,0,0,-0.2699,-0.2692,-0.2756,-0.2757,-0.2723,-0.2734,-0.2736,-0.2752,-0.274,-0.2739,-0.275,-0.2749,-0.2736,-0.2735,-0.2735,-0.2765,-0.2728,-0.2728,-0.2728,-0.2768,-0.2769,-0.277,0,0,0,0,0,0,-0.2697,-0.2705,-0.2756,-0.2727,-0.2733,-0.2736,-0.2754,-0.2753,-0.2759,-0.2748,-0.2745,-0.2758,-0.2736,-0.2735,-0.2746,-0.2764,-0.2728,-0.2728,-0.2766,-0.2768,-0.277,-0.2815,0,0,0,0,0,0,-0.2694,-0.2704,-0.2717,-0.2729,-0.2735,-0.2774,-0.2755,-0.2754,-0.2766,-0.2764,-0.2754,-0.2751,-0.2735,-0.2746,-0.2746,-0.2763,-0.2728,-0.2765,-0.2767,-0.2769,-0.2812,-0.2818,-0.2823,0,0,0,0,0,-0.2691,-0.2713,-0.2717,-0.2725,-0.2754,-0.2775,-0.2776,-0.2773,-0.2767,-0.2774,-0.2769,-0.2752,-0.2759,-0.2747,-0.2747,-0.2764,-0.2764,-0.2766,-0.2769,-0.2809,-0.2817,-0.2823,0,0,0,0,0,0,-0.2683,-0.2713,-0.2718,-0.2749,-0.2765,-0.2773,-0.2779,-0.2782,-0.2784,-0.2781,-0.2766,-0.2764,-0.278,-0.277,-0.2757,-0.2783,-0.2759,-0.2762,-0.279,-0.2797,-0.2802,-0.2802,-0.2728,0,0,0,0,0,-0.2689,-0.2709,-0.2736,-0.2758,-0.2769,-0.2777,-0.2785,-0.2788,-0.2793,-0.2793,-0.2789,-0.2786,-0.279,-0.2791,-0.279,-0.2807,-0.2769,-0.2818,-0.2824,-0.2828,-0.2829,-0.2786,-0.2787,-0.2778,-0.2778,-0.2778,0,0,-0.2688,-0.2711,-0.272,-0.2757,-0.2765,-0.2792,-0.2779,-0.2798,-0.2819,-0.2792,-0.2813,-0.2806,-0.2799,-0.2814,-0.2821,-0.2808,-0.2812,-0.2832,-0.2835,-0.2833,-0.2789,-0.2789,-0.2789,-0.278,-0.278,-0.278,0,0,-0.27,-0.2722,-0.2742,-0.2764,-0.2792,-0.2802,-0.2814,-0.2833,-0.2838,-0.2861,-0.2847,-0.285,-0.2859,-0.2854,-0.2853,-0.2891,-0.2842,-0.2895,-0.2922,-0.2881,-0.2881,-0.288,-0.2829,-0.2824,-0.2898,-0.2898,-0.2898,0,-0.27,-0.2733,-0.275,-0.2781,-0.2799,-0.2813,-0.284,-0.2856,-0.2876,-0.2878,-0.2874,-0.2877,-0.2876,-0.2886,-0.2905,-0.2902,-0.2865,-0.2896,-0.2886,-0.2884,-0.2883,-0.2831,-0.2824,-0.29,-0.29,-0.29,-0.29,0,-0.2728,-0.2757,-0.2772,-0.2817,-0.284,-0.2863,-0.2895,-0.2914,-0.2922,-0.2929,-0.2938,-0.2932,-0.2926,-0.2937,-0.2937,-0.2935,-0.2907,-0.2895,-0.2864,-0.2886,-0.2831,-0.2823,-0.2904,-0.2903,-0.2902,-0.2902,0,0,-0.271,-0.2778,-0.2782,-0.2797,-0.2858,-0.287,-0.292,-0.2948,-0.2956,-0.2976,-0.2974,-0.2998,-0.2979,-0.2978,-0.297,-0.2952,-0.2919,-0.2928,-0.2925,-0.2869,-0.2814,-0.272,-0.2702,-0.2899,-0.2898,-0.2897,-0.2777,0,-0.2721,-0.2769,-0.2812,-0.285,-0.2868,-0.2908,-0.2944,-0.2973,-0.2988,-0.2992,-0.2991,-0.2986,-0.2999,-0.2985,-0.2975,-0.2932,-0.2901,-0.2952,-0.2809,-0.2804,-0.2711,-0.2691,-0.2525,-0.2398,-0.2769,-0.2768,-0.2767,0,-0.2722,-0.2755,-0.2793,-0.2841,-0.2854,-0.2884,-0.2916,-0.2951,-0.2978,-0.2986,-0.299,-0.2983,-0.2976,-0.2971,-0.2905,-0.2934,-0.2881,-0.2845,-0.2839,-0.2729,-0.2696,-0.2438,-0.2368,-0.2753,-0.2754,-0.2755,-0.2756,0,-0.2655,-0.2731,-0.2751,-0.2772,-0.2841,-0.2859,-0.2892,-0.2934,-0.2947,-0.2968,-0.2962,-0.296,-0.2932,-0.2889,-0.2838,-0.2862,-0.274,-0.2754,-0.2615,-0.2608,-0.2426,-0.2404,-0.2686,-0.2686,-0.2686,-0.2686,-0.2687,0,-0.2627,-0.2637,-0.2717,-0.2721,-0.2734,-0.2804,-0.2814,-0.2852,-0.2892,-0.288,-0.2937,-0.2904,-0.2909,-0.2851,-0.2812,-0.2677,-0.2709,-0.2604,-0.2565,-0.2438,-0.2419,-0.2702,-0.2706,-0.2682,-0.2683,-0.2684,-0.2684,0,-0.2522,-0.2589,-0.2601,-0.2674,-0.2695,-0.2691,-0.2758,-0.2756,-0.2821,-0.2805,-0.2807,-0.2841,-0.2767,-0.2749,-0.266,-0.2612,-0.2514,-0.2455,-0.2306,-0.2251,-0.2418,-0.2426,-0.2287,-0.2282,-0.2279,-0.2275,-0.2273,0,-0.246,-0.246,-0.2527,-0.2529,-0.2556,-0.2582,-0.2591,-0.2688,-0.2691,-0.2739,-0.2705,-0.2677,-0.2611,-0.2472,-0.238,-0.2266,-0.2374,-0.2055,-0.2078,-0.2399,-0.2375,-0.2389,-0.2401,-0.1853,-0.1847,-0.1842,-0.1838,0,-0.2324,-0.2356,-0.2369,-0.2376,-0.2389,-0.2407,-0.2436,-0.2443,-0.2533,-0.2533,-0.2502,-0.2465,-0.2355,-0.2165,-0.2048,-0.197,-0.207,-0.1952,-0.2288,-0.1993,-0.1983,-0.1963,-0.199,-0.1796,-0.18,-0.1803,-0.1805,-0.1807,-0.22,-0.2176,-0.2201,-0.2194,-0.2218,-0.2211,-0.2165,-0.2215,-0.2206,-0.2168,-0.2239,-0.2117,-0.2093,-0.1813,-0.1697,-0.1613,-0.176,-0.1699,-0.1716,-0.1738,-0.1722,-0.1707,-0.1465,-0.1467,-0.1469,-0.1471,-0.1472,0,-0.2023,-0.2023,-0.2011,-0.2005,-0.1964,-0.2035,-0.203,-0.1953,-0.1885,-0.1886,-0.1836,-0.1624,-0.1504,-0.1484,-0.1282,-0.124,-0.1255,-0.1197,-0.123,-0.1272,-0.131,-0.1276,-0.0898,-0.0896,-0.0895,-0.0893,0,0,-0.1927,-0.186,-0.1864,-0.1752,-0.1745,-0.1627,-0.1589,-0.1511,-0.1469,-0.1348,-0.1287,-0.1387,-0.1422,-0.1159,-0.1099,-0.0961,-0.1104,-0.0908,-0.1367,-0.1447,-0.1482,-0.1595,-0.1588,0,0,0,0,0]},{"header":{"parameterUnit":"m.s-1","parameterCategory":2,"la1":30.2991,"la2":30.254,"lo1":-89.0895,"lo2":-89.0444,"dy":0.0017,"dx":0.0017,"nx":28,"ny":28,"refTime":"2024-05-27T09:00:00:Z","depth":"2","parameterNumber":3,"parameterNumberName":"V-component_of_CURRENTS"},"data":[0,0,0,0,0,0,0,0,0,0,0,0,0,0,0,0,0,0,0,0,0,0,0,0,0,0,0,0,0,0,0,0,0,0,0,0,0,0,0,0,0,0,0,0,0,0,0,0,0,0,0,0,0,0,0,0,0,0,-0.0468,-0.0467,0,-0.0361,-0.036,-0.0359,-0.0285,-0.0285,-0.0284,-0.0284,-0.0129,-0.0126,-0.0122,0,0,0,0,0,0,0,0,0,0,0,0,0,-0.0524,-0.0523,-0.0468,-0.0467,-0.0466,-0.0362,-0.036,-0.0358,-0.0285,-0.0285,-0.0284,-0.0284,-0.013,-0.0126,-0.0122,0,0,0,0,0,0,0,0,0,0,0,0,0,-0.0465,-0.0523,-0.0468,-0.0418,-0.0413,-0.0362,-0.036,-0.0358,-0.0285,-0.0285,-0.0284,-0.0284,-0.0132,-0.0126,-0.0121,-0.0098,0,0,-0.0104,-0.0101,0,0,0,0,0,0,0,0,-0.0469,-0.0463,-0.0427,-0.0421,-0.0415,-0.0337,-0.0323,-0.0269,-0.0286,-0.0332,-0.0284,-0.0283,-0.0196,-0.0185,-0.0165,-0.0091,-0.0084,-0.0103,-0.01,-0.0097,-0.0096,0,0,0,0,0,0,0,-0.0473,-0.0467,-0.0424,-0.0425,-0.0418,-0.0371,-0.0363,-0.0312,-0.0267,-0.0328,-0.0323,-0.0314,-0.0192,-0.017,-0.016,-0.0082,-0.0103,-0.0098,-0.0095,-0.0093,0.0037,0.0037,0,0,0,0,0,0,-0.0494,-0.0471,-0.0428,-0.0421,-0.0443,-0.0371,-0.0362,-0.0362,-0.0268,-0.0254,-0.0314,-0.0311,-0.018,-0.0167,-0.0155,-0.0113,-0.0097,-0.0092,-0.0089,0.0037,0.0037,0.0037,0,0,0,0,0,0,-0.0496,-0.0492,-0.0432,-0.0444,-0.0434,-0.0372,-0.0372,-0.036,-0.0338,-0.0258,-0.0243,-0.0304,-0.0179,-0.0163,-0.011,-0.0107,-0.009,-0.0085,0.0037,0.0037,0.0037,-0.0036,0,0,0,0,0,0,-0.0498,-0.0494,-0.0503,-0.0446,-0.0434,-0.041,-0.0372,-0.0358,-0.0334,-0.0328,-0.0245,-0.023,-0.0177,-0.0119,-0.0104,-0.0099,-0.008,0.0037,0.0037,0.0037,-0.0034,-0.0039,-0.0043,0,0,0,0,0,-0.0501,-0.0516,-0.0504,-0.0499,-0.0448,-0.041,-0.04,-0.0352,-0.0334,-0.0329,-0.0271,-0.0232,-0.0107,-0.0114,-0.0097,-0.009,0.0037,0.0037,0.0037,-0.0032,-0.0038,-0.0043,0,0,0,0,0,0,-0.0545,-0.0509,-0.0494,-0.0498,-0.0462,-0.0399,-0.0391,-0.036,-0.031,-0.0305,-0.023,-0.0211,-0.0165,-0.0119,-0.0128,-0.0052,-0.0029,-0.0026,-0.0088,-0.0092,-0.0097,-0.0112,-0.0075,0,0,0,0,0,-0.0562,-0.0564,-0.0518,-0.0522,-0.0508,-0.0453,-0.0433,-0.0401,-0.035,-0.0327,-0.0269,-0.0207,-0.0152,-0.0117,-0.0065,-0.0021,0.003,-0.0006,-0.0011,-0.0015,-0.0016,0.0064,0.0066,0.0038,0.0038,0.0038,0,0,-0.0578,-0.0561,-0.0561,-0.0531,-0.05,-0.0484,-0.0439,-0.0416,-0.0395,-0.0318,-0.0277,-0.0224,-0.0146,-0.0099,-0.0074,-0.0058,0.0019,-0.0014,-0.0019,-0.0017,0.0064,0.0067,0.007,0.0038,0.0038,0.0038,0,0,-0.0613,-0.06,-0.0612,-0.0586,-0.055,-0.0514,-0.0512,-0.0455,-0.0424,-0.0381,-0.032,-0.0263,-0.0184,-0.0121,-0.008,-0.0075,-0.0013,-0.0065,-0.009,-0.0013,-0.001,-0.0007,0.0053,0.0063,-0.006,-0.006,-0.006,0,-0.0636,-0.0643,-0.0608,-0.0608,-0.0591,-0.0533,-0.0532,-0.0492,-0.0423,-0.0393,-0.0379,-0.0252,-0.019,-0.0114,-0.0115,-0.0084,-0.004,-0.0079,-0.0019,-0.0015,-0.001,0.0051,0.0062,-0.0064,-0.0063,-0.0063,-0.0063,0,-0.0673,-0.0675,-0.0679,-0.0661,-0.0638,-0.0629,-0.0572,-0.0544,-0.0504,-0.0452,-0.0381,-0.0297,-0.0217,-0.0192,-0.0151,-0.0088,-0.0068,-0.0042,-0.001,-0.0012,0.0053,0.0066,-0.0069,-0.0067,-0.0066,-0.0065,0,0,-0.0727,-0.0711,-0.0711,-0.071,-0.0666,-0.065,-0.062,-0.0566,-0.0538,-0.0471,-0.0422,-0.0329,-0.0281,-0.0232,-0.0169,-0.0103,-0.0036,-0.0069,-0.0064,-0.0017,0.012,0.0153,0.0171,-0.0003,-0.0001,0.0,0.0149,0,-0.0764,-0.0788,-0.0758,-0.0763,-0.0768,-0.0706,-0.068,-0.0622,-0.0562,-0.05,-0.0402,-0.0336,-0.0295,-0.0258,-0.0188,-0.0071,-0.0004,-0.008,0.0122,0.0128,0.0152,0.0187,0.0153,0.0284,0.0162,0.0164,0.0166,0,-0.0807,-0.0815,-0.084,-0.0816,-0.081,-0.0801,-0.0746,-0.0712,-0.0608,-0.0559,-0.0474,-0.0393,-0.0282,-0.0254,-0.0059,-0.0113,-0.0009,0.0078,0.0087,0.0154,0.0186,0.027,0.0313,0.0188,0.0186,0.0185,0.0183,0,-0.0868,-0.0867,-0.0893,-0.0885,-0.0851,-0.0845,-0.0818,-0.0734,-0.0698,-0.0593,-0.055,-0.0412,-0.0333,-0.0192,-0.0018,-0.0034,0.0194,0.0205,0.0335,0.0338,0.0369,0.0371,0.0343,0.0342,0.0342,0.0342,0.0341,0,-0.0921,-0.0934,-0.0928,-0.094,-0.0957,-0.0908,-0.0896,-0.0846,-0.0763,-0.0707,-0.059,-0.051,-0.0314,-0.0159,-0.0018,0.0202,0.0205,0.0341,0.0387,0.0341,0.0339,0.0302,0.0296,0.0347,0.0346,0.0345,0.0344,0,-0.0979,-0.0978,-0.1005,-0.0992,-0.0992,-0.1005,-0.0964,-0.0944,-0.086,-0.0784,-0.0751,-0.0565,-0.0355,-0.0158,0.0096,0.0216,0.0412,0.0486,0.0409,0.0444,0.0501,0.0489,0.0652,0.0655,0.0657,0.0659,0.066,0,-0.101,-0.1035,-0.1056,-0.1078,-0.1078,-0.1083,-0.1081,-0.101,-0.0971,-0.0806,-0.0765,-0.0553,-0.0373,-0.0002,0.024,0.0508,0.0492,0.0621,0.0594,0.0509,0.0537,0.0521,0.0507,0.0605,0.0606,0.0606,0.0607,0,-0.106,-0.1072,-0.1096,-0.1146,-0.1169,-0.1177,-0.1158,-0.1137,-0.1024,-0.0931,-0.0749,-0.0592,-0.0232,0.0076,0.0401,0.0539,0.0573,0.0647,0.0611,0.0522,0.0475,0.0498,0.0484,0.0614,0.0613,0.0613,0.0612,0.0612,-0.109,-0.1126,-0.1162,-0.1205,-0.1237,-0.1244,-0.1226,-0.1165,-0.1083,-0.0888,-0.0746,-0.0475,-0.0194,0.029,0.051,0.0693,0.0687,0.073,0.0724,0.0717,0.0676,0.0634,0.0795,0.0796,0.0796,0.0796,0.0797,0,-0.1116,-0.1156,-0.1206,-0.1255,-0.129,-0.129,-0.125,-0.1189,-0.1066,-0.0865,-0.0655,-0.0329,0.0024,0.0295,0.061,0.0802,0.0762,0.081,0.0727,0.0719,0.0713,0.0667,0.0787,0.0788,0.0788,0.0789,0,0,-0.113,-0.1185,-0.1213,-0.1279,-0.131,-0.1304,-0.1268,-0.1157,-0.0998,-0.078,-0.0567,-0.0279,0.0051,0.0277,0.0505,0.0662,0.0632,0.0659,0.0646,0.0513,0.0504,0.0647,0.0567,0,0,0,0,0]}],[{"header":{"parameterUnit":"m.s-1","parameterCategory":2,"la1":30.2991,"la2":30.254,"lo1":-89.0895,"lo2":-89.0444,"dy":0.0017,"dx":0.0017,"nx":28,"ny":28,"refTime":"2024-05-27T09:00:00:Z","depth":"4","parameterNumber":2,"parameterNumberName":"U-component_of_CURRENTS"},"data":[0,0,0,0,0,0,0,0,0,0,0,0,0,0,0,0,0,0,0,0,0,0,0,0,0,0,0,0,0,0,0,0,0,0,0,0,0,0,0,0,0,0,0,0,0,0,0,0,0,0,0,0,0,0,0,0,0,0,-0.1851,-0.1851,0,-0.1898,-0.1898,-0.1899,-0.1937,-0.1938,-0.1938,-0.1939,-0.1992,-0.1993,-0.1994,0,0,0,0,0,0,0,0,0,0,0,0,0,-0.1765,-0.1767,-0.185,-0.1851,-0.1852,-0.1898,-0.1898,-0.1899,-0.1937,-0.1938,-0.1939,-0.1939,-0.1992,-0.1993,-0.1994,0,0,0,0,0,0,0,0,0,0,0,0,0,-0.1805,-0.1767,-0.185,-0.1878,-0.1881,-0.1898,-0.1898,-0.1899,-0.1937,-0.1938,-0.1939,-0.194,-0.1992,-0.1993,-0.1994,-0.1985,0,0,-0.1998,-0.1999,0,0,0,0,0,0,0,0,-0.1802,-0.1808,-0.1873,-0.1876,-0.188,-0.1914,-0.1888,-0.1929,-0.1937,-0.1914,-0.1939,-0.194,-0.1967,-0.1971,-0.1975,-0.1988,-0.199,-0.1999,-0.1999,-0.2,-0.2,0,0,0,0,0,0,0,-0.18,-0.1806,-0.1867,-0.1874,-0.1878,-0.1879,-0.1885,-0.1895,-0.1934,-0.1916,-0.1919,-0.1927,-0.1969,-0.1974,-0.1977,-0.1991,-0.1999,-0.2,-0.2001,-0.2001,-0.21,-0.2102,0,0,0,0,0,0,-0.1798,-0.1803,-0.1866,-0.1869,-0.1844,-0.188,-0.1887,-0.1901,-0.1934,-0.194,-0.1926,-0.1929,-0.1971,-0.1975,-0.1979,-0.2061,-0.2,-0.2001,-0.2002,-0.2098,-0.21,-0.2102,0,0,0,0,0,0,-0.1796,-0.1804,-0.1864,-0.1838,-0.1846,-0.1881,-0.1895,-0.1901,-0.1938,-0.1942,-0.1948,-0.1962,-0.1972,-0.1977,-0.2023,-0.206,-0.2002,-0.2003,-0.2096,-0.2099,-0.2101,-0.2166,0,0,0,0,0,0,-0.1794,-0.1803,-0.1823,-0.1838,-0.1848,-0.1894,-0.1895,-0.1902,-0.1941,-0.1945,-0.1974,-0.1978,-0.1973,-0.2021,-0.2024,-0.206,-0.2004,-0.2094,-0.2097,-0.2101,-0.2162,-0.2171,-0.2179,0,0,0,0,0,-0.1791,-0.1806,-0.1824,-0.1832,-0.1871,-0.1896,-0.1901,-0.1926,-0.1942,-0.1962,-0.199,-0.1978,-0.2045,-0.2024,-0.2027,-0.2064,-0.2092,-0.2096,-0.21,-0.2158,-0.2169,-0.2179,0,0,0,0,0,0,-0.1776,-0.1812,-0.1832,-0.1859,-0.1888,-0.1904,-0.1925,-0.1945,-0.1981,-0.1995,-0.2,-0.2006,-0.2058,-0.2055,-0.2031,-0.2104,-0.2068,-0.2073,-0.2111,-0.2121,-0.2129,-0.2129,-0.2005,0,0,0,0,0,-0.1784,-0.181,-0.1842,-0.1866,-0.1884,-0.1913,-0.1931,-0.1953,-0.198,-0.1998,-0.2022,-0.2048,-0.2071,-0.2093,-0.2107,-0.2148,-0.2116,-0.2176,-0.2184,-0.2191,-0.2195,-0.218,-0.2186,-0.2116,-0.2116,-0.2116,0,0,-0.1786,-0.1809,-0.1825,-0.1867,-0.1891,-0.1926,-0.1927,-0.1965,-0.2004,-0.1997,-0.2064,-0.2077,-0.2088,-0.2135,-0.2158,-0.2142,-0.2193,-0.2196,-0.2202,-0.2202,-0.2185,-0.2191,-0.2197,-0.2119,-0.2118,-0.2118,0,0,-0.1795,-0.1826,-0.1854,-0.1884,-0.1931,-0.195,-0.197,-0.2012,-0.2044,-0.21,-0.2108,-0.2146,-0.2187,-0.2202,-0.2213,-0.2278,-0.2235,-0.2291,-0.2338,-0.2324,-0.2329,-0.2333,-0.2289,-0.2289,-0.2299,-0.2299,-0.2299,0,-0.1798,-0.1841,-0.1865,-0.1901,-0.1935,-0.1967,-0.201,-0.2042,-0.2098,-0.2127,-0.2133,-0.2202,-0.2216,-0.2265,-0.2296,-0.2296,-0.227,-0.2297,-0.2333,-0.2336,-0.2339,-0.2293,-0.2292,-0.2303,-0.2302,-0.2302,-0.2301,0,-0.1826,-0.1875,-0.1893,-0.1956,-0.199,-0.2031,-0.2079,-0.2127,-0.2169,-0.2198,-0.2265,-0.2283,-0.2321,-0.2339,-0.2342,-0.2383,-0.235,-0.2339,-0.2302,-0.235,-0.2299,-0.2296,-0.2308,-0.2306,-0.2305,-0.2304,0,0,-0.1802,-0.1896,-0.191,-0.1951,-0.2028,-0.2053,-0.2127,-0.2192,-0.2235,-0.2292,-0.234,-0.2399,-0.2408,-0.2421,-0.2429,-0.2431,-0.2433,-0.2407,-0.2405,-0.2353,-0.2381,-0.2225,-0.2207,-0.2428,-0.2429,-0.2429,-0.2331,0,-0.1825,-0.19,-0.1948,-0.2027,-0.2068,-0.2128,-0.2186,-0.2249,-0.2298,-0.2348,-0.2383,-0.2425,-0.2439,-0.2457,-0.2469,-0.2439,-0.2432,-0.2459,-0.2351,-0.2347,-0.2195,-0.2201,-0.243,-0.2329,-0.2328,-0.2328,-0.2327,0,-0.1839,-0.189,-0.1971,-0.2064,-0.2089,-0.2142,-0.2233,-0.2288,-0.2362,-0.2399,-0.2451,-0.2467,-0.2501,-0.2492,-0.247,-0.2487,-0.2448,-0.2417,-0.2411,-0.2241,-0.2187,-0.2275,-0.2322,-0.2322,-0.2323,-0.2323,-0.2324,0,-0.1793,-0.1905,-0.1971,-0.2006,-0.2112,-0.2165,-0.2224,-0.2307,-0.2346,-0.2426,-0.2445,-0.2492,-0.2495,-0.2478,-0.2436,-0.2454,-0.2373,-0.238,-0.2199,-0.2186,-0.2328,-0.2324,-0.2353,-0.2353,-0.2353,-0.2353,-0.2354,0,-0.178,-0.1835,-0.1961,-0.1991,-0.2059,-0.2148,-0.2216,-0.228,-0.2357,-0.2373,-0.2463,-0.2452,-0.2493,-0.2456,-0.2426,-0.2285,-0.2361,-0.2194,-0.215,-0.2356,-0.2358,-0.2324,-0.2322,-0.235,-0.235,-0.2351,-0.2352,0,-0.1701,-0.1798,-0.1866,-0.1994,-0.2036,-0.2077,-0.219,-0.2218,-0.2318,-0.2336,-0.2357,-0.2413,-0.2357,-0.2361,-0.2303,-0.2232,-0.214,-0.2074,-0.227,-0.2241,-0.1966,-0.1969,-0.1855,-0.1848,-0.1843,-0.1838,-0.1835,0,-0.1657,-0.1692,-0.1832,-0.1866,-0.1926,-0.2009,-0.2048,-0.2174,-0.2192,-0.2273,-0.2248,-0.225,-0.2261,-0.2045,-0.2081,-0.1988,-0.1974,-0.1915,-0.1972,-0.1945,-0.1915,-0.1927,-0.1937,-0.1826,-0.1825,-0.1823,-0.1822,0,-0.1554,-0.1625,-0.1677,-0.1746,-0.1805,-0.1856,-0.1926,-0.1929,-0.2041,-0.2147,-0.2074,-0.2035,-0.1961,-0.1916,-0.1852,-0.1797,-0.1951,-0.1859,-0.1871,-0.1924,-0.1909,-0.1887,-0.1904,-0.1803,-0.1806,-0.1808,-0.1809,0,-0.1464,-0.1472,-0.1551,-0.1593,-0.1666,-0.1674,-0.174,-0.1751,-0.179,-0.19,-0.1854,-0.1868,-0.1921,-0.1811,-0.1749,-0.1684,-0.167,-0.1627,-0.1651,-0.1672,-0.166,-0.1618,-0.1369,0,0,0,0,0,-0.1359,-0.1353,-0.1385,-0.1427,-0.1494,-0.1531,-0.1635,-0.1704,-0.1818,-0.1712,-0.1787,-0.1714,-0.1629,-0.1638,-0.1529,-0.1664,-0.1678,-0.153,-0.1645,-0.17,-0.1722,-0.1726,0,0,0,0,0,0,-0.1286,-0.1315,-0.1329,-0.1278,-0.1271,-0.1319,-0.1381,-0.1465,-0.1429,-0.1549,-0.1509,-0.1594,-0.1535,-0.1645,-0.1482,-0.1484,-0.1519,-0.1553,-0.1548,-0.1688,-0.1708,-0.1725,-0.1737,0,0,0,0,0]},{"header":{"parameterUnit":"m.s-1","parameterCategory":2,"la1":30.2991,"la2":30.254,"lo1":-89.0895,"lo2":-89.0444,"dy":0.0017,"dx":0.0017,"nx":28,"ny":28,"refTime":"2024-05-27T09:00:00:Z","depth":"4","parameterNumber":3,"parameterNumberName":"V-component_of_CURRENTS"},"data":[0,0,0,0,0,0,0,0,0,0,0,0,0,0,0,0,0,0,0,0,0,0,0,0,0,0,0,0,0,0,0,0,0,0,0,0,0,0,0,0,0,0,0,0,0,0,0,0,0,0,0,0,0,0,0,0,0,0,-0.0334,-0.0333,0,-0.0277,-0.0276,-0.0275,-0.024,-0.024,-0.0239,-0.0239,-0.0149,-0.0146,-0.0144,0,0,0,0,0,0,0,0,0,0,0,0,0,-0.0347,-0.0347,-0.0334,-0.0333,-0.0333,-0.0277,-0.0276,-0.0275,-0.024,-0.024,-0.0239,-0.0239,-0.015,-0.0147,-0.0144,0,0,0,0,0,0,0,0,0,0,0,0,0,-0.032,-0.0348,-0.0334,-0.0309,-0.0307,-0.0277,-0.0276,-0.0275,-0.024,-0.024,-0.0239,-0.0239,-0.015,-0.0147,-0.0144,-0.0123,0,0,-0.0133,-0.0131,0,0,0,0,0,0,0,0,-0.0321,-0.0319,-0.0314,-0.0311,-0.0308,-0.0266,-0.0247,-0.0223,-0.024,-0.0263,-0.0239,-0.0239,-0.0186,-0.018,-0.0167,-0.0119,-0.0115,-0.0132,-0.013,-0.0129,-0.0128,0,0,0,0,0,0,0,-0.0323,-0.0321,-0.031,-0.0313,-0.031,-0.0279,-0.0275,-0.0242,-0.0224,-0.0261,-0.0259,-0.0255,-0.0184,-0.0171,-0.0165,-0.0114,-0.0132,-0.0129,-0.0127,-0.0126,-0.003,-0.0029,0,0,0,0,0,0,-0.0337,-0.0323,-0.0311,-0.0308,-0.0316,-0.0279,-0.0275,-0.0279,-0.0225,-0.0218,-0.0255,-0.0254,-0.0177,-0.0169,-0.0162,-0.0128,-0.0129,-0.0125,-0.0123,-0.003,-0.003,-0.0029,0,0,0,0,0,0,-0.0338,-0.0337,-0.0314,-0.0315,-0.031,-0.028,-0.0283,-0.0278,-0.0269,-0.0221,-0.0213,-0.0253,-0.0177,-0.0167,-0.0132,-0.0125,-0.0124,-0.0121,-0.0031,-0.003,-0.0029,-0.0066,0,0,0,0,0,0,-0.0338,-0.0338,-0.0348,-0.0316,-0.0311,-0.0302,-0.0284,-0.0277,-0.0267,-0.0264,-0.0216,-0.0208,-0.0176,-0.0138,-0.0129,-0.012,-0.0118,-0.0031,-0.003,-0.003,-0.0065,-0.0066,-0.0067,0,0,0,0,0,-0.0339,-0.0352,-0.0349,-0.0347,-0.0325,-0.0303,-0.0297,-0.0273,-0.0267,-0.0265,-0.023,-0.0209,-0.0126,-0.0135,-0.0124,-0.0114,-0.0032,-0.0031,-0.003,-0.0064,-0.0066,-0.0067,0,0,0,0,0,0,-0.0362,-0.0349,-0.0344,-0.0353,-0.0334,-0.0298,-0.0297,-0.028,-0.0251,-0.025,-0.0205,-0.0193,-0.0162,-0.0133,-0.0143,-0.0083,-0.0075,-0.0072,-0.0105,-0.0106,-0.0107,-0.0118,-0.0115,0,0,0,0,0,-0.0374,-0.0382,-0.0359,-0.0366,-0.036,-0.0331,-0.0321,-0.0305,-0.0274,-0.0262,-0.0228,-0.0187,-0.0148,-0.0125,-0.0091,-0.0058,-0.0022,-0.0043,-0.0045,-0.0046,-0.0047,0.002,0.0025,-0.0026,-0.0026,-0.0026,0,0,-0.0384,-0.0379,-0.0384,-0.0372,-0.0357,-0.0348,-0.0324,-0.0315,-0.0302,-0.0256,-0.0231,-0.0195,-0.0142,-0.0106,-0.0088,-0.008,-0.0014,-0.0045,-0.0046,-0.0046,0.0021,0.0026,0.0031,-0.0025,-0.0026,-0.0026,0,0,-0.0407,-0.0407,-0.042,-0.0406,-0.039,-0.0368,-0.0369,-0.0338,-0.032,-0.0292,-0.0253,-0.0208,-0.016,-0.0109,-0.0079,-0.0064,-0.0028,-0.0061,-0.0068,-0.0003,0.0002,0.0006,0.0052,0.0061,-0.0055,-0.0055,-0.0055,0,-0.0421,-0.0434,-0.0418,-0.0421,-0.0414,-0.0381,-0.0384,-0.0357,-0.0316,-0.0296,-0.0291,-0.0199,-0.0155,-0.0091,-0.0086,-0.0066,-0.0036,-0.0068,-0.0005,0.0001,0.0006,0.0052,0.0062,-0.0056,-0.0056,-0.0056,-0.0056,0,-0.0447,-0.0456,-0.0461,-0.0456,-0.0444,-0.0442,-0.0406,-0.0388,-0.0366,-0.0331,-0.0277,-0.0213,-0.0156,-0.0132,-0.0105,-0.0043,-0.0038,-0.002,-0.0004,0.0009,0.0056,0.0067,-0.0059,-0.0058,-0.0058,-0.0057,0,0,-0.0483,-0.0482,-0.0484,-0.049,-0.0464,-0.0458,-0.0435,-0.04,-0.0383,-0.0333,-0.0298,-0.0218,-0.0185,-0.0148,-0.01,-0.004,0.0026,-0.0022,-0.0018,0.0017,0.0151,0.0129,0.0139,0.0049,0.0051,0.0052,0.0166,0,-0.0509,-0.0533,-0.0517,-0.0527,-0.0535,-0.0496,-0.0478,-0.0439,-0.0398,-0.0355,-0.0273,-0.0226,-0.0189,-0.0164,-0.0096,-0.0007,0.0055,-0.0008,0.0139,0.0143,0.0118,0.0152,0.0058,0.0175,0.0178,0.018,0.0181,0,-0.0541,-0.0552,-0.0578,-0.057,-0.0569,-0.0569,-0.0537,-0.0513,-0.0436,-0.0402,-0.0332,-0.0271,-0.0173,-0.015,0.0016,-0.0031,0.0054,0.0125,0.0131,0.0131,0.0142,0.0164,0.0202,0.0201,0.0199,0.0198,0.0196,0,-0.0583,-0.0592,-0.0621,-0.0619,-0.0603,-0.0607,-0.0593,-0.0535,-0.0512,-0.0433,-0.0403,-0.0285,-0.0223,-0.01,0.0041,0.003,0.0216,0.0228,0.0292,0.0291,0.0291,0.0285,0.035,0.035,0.0349,0.0349,0.0349,0,-0.0616,-0.0636,-0.0652,-0.0665,-0.0693,-0.0661,-0.0666,-0.0631,-0.0573,-0.0535,-0.0437,-0.0375,-0.0208,-0.0083,0.0039,0.0195,0.0222,0.0297,0.0325,0.0272,0.0263,0.0299,0.0292,0.0353,0.0352,0.0351,0.0351,0,-0.0651,-0.0664,-0.0698,-0.0709,-0.0719,-0.074,-0.073,-0.072,-0.0662,-0.0608,-0.0584,-0.0433,-0.0269,-0.0105,0.0107,0.019,0.0344,0.0394,0.0314,0.0334,0.0375,0.0364,0.048,0.048,0.048,0.0481,0.0481,0,-0.0668,-0.0695,-0.0743,-0.0774,-0.0787,-0.0811,-0.0822,-0.0778,-0.0752,-0.0633,-0.06,-0.0442,-0.0327,-0.0042,0.0118,0.0345,0.0374,0.0442,0.042,0.0376,0.0392,0.0381,0.037,0.0481,0.0481,0.0481,0.0481,0,-0.0693,-0.0723,-0.0753,-0.0821,-0.086,-0.0884,-0.0887,-0.087,-0.0792,-0.0749,-0.0586,-0.0427,-0.0243,-0.0032,0.0137,0.03,0.039,0.0445,0.0446,0.0426,0.0379,0.0392,0.0381,0.0482,0.0482,0.0482,0.0482,0,-0.0712,-0.0747,-0.0798,-0.085,-0.0908,-0.0926,-0.0924,-0.0862,-0.0822,-0.0677,-0.0625,-0.0415,-0.0288,-0.0054,0.0106,0.0255,0.0292,0.0332,0.0339,0.034,0.0256,0.0173,0.0246,0,0,0,0,0,-0.0718,-0.0758,-0.0814,-0.0871,-0.0928,-0.0951,-0.0946,-0.0923,-0.0851,-0.074,-0.0672,-0.0491,-0.0223,-0.0101,0.0047,0.0087,0.0292,0.0261,0.0334,0.0487,0.0486,0.0408,0,0,0,0,0,0,-0.0724,-0.0784,-0.0811,-0.0874,-0.0912,-0.0959,-0.0956,-0.0909,-0.0822,-0.0731,-0.0582,-0.048,-0.0222,-0.0312,0.004,0.0086,0.0147,0.0393,0.0396,0.0488,0.0487,0.0486,0.0406,0,0,0,0,0]}]]